Regional Weather Roundup
Issued by NWS State College, PA

Home | Current Version | Previous Version | Graphics & Text | Print | Product List | Glossary On
Versions: 1 2 3 4 5 6 7 8 9 10 11 12 13 14 15 16 17 18 19 20 21 22 23 24 25 26 27 28 29 30 31 32 33 34 35 36 37 38 39 40 41 42 43 44 45 46 47 48 49 50
000
ASUS41 KCTP 230310
RWRCTP

REGIONAL WEATHER ROUNDUP
NATIONAL WEATHER SERVICE STATE COLLEGE PA
1100 PM EDT FRI MAY 22 2015

Note: "fair" indicates few or no clouds below 12,000 feet with no
significant weather and/or obstructions to visibility.

* = STATION THAT DOES NOT REPORT PRECIPITATION /E.G. RAIN...SNOW...ETC/
    THUNDER OR FOG.

PAZ002>004-007>009-013>016-020>023-029>032-230400-
WESTERN PENNSYLVANIA

CITY           SKY/WX    TMP DP  RH WIND       PRES   REMARKS
ERIE           CLEAR     44  33  65 S5        30.30R
MEADVILLE      CLEAR     42  23  46 CALM      30.30R
FRANKLIN*      CLEAR     39  21  48 SW6       30.32R
NEW CASTLE     FAIR      41  33  73 CALM      30.34R
BEAVER COUNTY  NOT AVBL
BUTLER*        PTCLDY    43  25  49 CALM      30.34R
PITTSBURGH INT PTCLDY    51  29  42 E3        30.32R
PITTSBURGH     CLEAR     50  24  36 N7        30.32R
INDIANA*       CLEAR     46  27  46 CALM      30.36R
LATROBE        NOT AVBL
WASHINGTON CO* CLEAR     50  30  46 N6        30.34R
$$

PAZ004>006-010>012-017>019-024>028-033>037-041-042-045-046-049>053-230400-
CENTRAL PENNSYLVANIA

CITY           SKY/WX    TMP DP  RH WIND       PRES   REMARKS
BRADFORD       CLEAR     37  19  48 CALM      30.26S
DUBOIS         CLEAR     41  21  44 CALM      30.28R
CLEARFIELD     CLEAR     47  23  38 W6        30.29R
JOHNSTOWN      CLEAR     45  26  47 NW13      30.29R
ALTOONA        CLEAR     52  27  38 N9G21     30.28R
STATE COLLEGE  CLEAR     51  29  42 NW14      30.27R
WILLIAMSPORT   CLEAR     55  27  34 NW12      30.22R
SELINSGROVE    CLEAR     57  32  38 NW10      30.23R
FT INDIANTOWN  CLEAR     60  24  24 W8        30.20R
CAPITAL CITY   CLEAR     61  23  23 NW14G21   30.21R
HARRISBURG     CLEAR     61  23  23 NW14      30.20R
YORK           CLEAR     57  29  34 W5        30.22R
$$

PAZ038>040-043-044-047-048-054-055-060>062-067>071-230400-
EASTERN PENNSYLVANIA

CITY           SKY/WX    TMP DP  RH WIND       PRES   REMARKS
SCRANTON       CLEAR     54  32  43 N13       30.20R
MOUNT POCONO   CLEAR     48  34  58 NW8       30.16R
ALLENTOWN      CLEAR     55  37  50 NW3       30.17R
QUAKERTOWN*    CLEAR     59  36  41 N5        30.17R
READING        CLEAR     59  23  25 NW14      30.17R
LANCASTER      CLEAR     59  25  27 NW7       30.19R
COATESVILLE    CLEAR     61  25  25 NW13      30.18R
POTTSTOWN      CLEAR     60  25  26 NW5       30.18R
BLUE BELL      CLEAR     64  27  24 W5        30.15R
DOYLESTOWN     CLEAR     59  32  36 N9        30.15R
WILLOW GROVE   NOT AVBL
NORTH PHILA    CLEAR     65  24  21 W12       30.16R
PHILADELPHIA   CLEAR     68  25  19 NW16G23   30.16R
$$



USA.gov is the U.S. government's official web portal to all federal, state and local government web resources and services.